[[{"header":{"parameterUnit":"m.s-1","parameterCategory":1,"la1":30.2991,"la2":30.254,"lo1":-89.0895,"lo2":-89.0444,"dy":0.0017,"dx":0.0017,"nx":28,"ny":28,"refTime":"2023-07-25T03:00:00:Z","depth":0,"parameterNumber":2,"parameterNumberName":"U-component_of_WINDS"},"data":[0,0,0,0,0,0,0,0,0,0,0,0,0,0,0,0,0,0,0,0,0,0,0,0,0,0,0,0,0,0,0,0,0,0,0,0,0,0,0,0,0,0,0,0,0,0,0,0,0,0,0,0,0,0,0,0,0,0,0.1039,0.1038,0,0.1015,0.1015,0.1014,0.1023,0.1024,0.1025,0.1025,0.0998,0.0997,0.0996,0,0,0,0,0,0,0,0,0,0,0,0,0,0.109,0.1089,0.1039,0.1038,0.1038,0.1015,0.1015,0.1014,0.1023,0.1024,0.1025,0.1025,0.0999,0.0997,0.0996,0,0,0,0,0,0,0,0,0,0,0,0,0,0.1067,0.1089,0.1039,0.104,0.104,0.1015,0.1015,0.1014,0.1023,0.1024,0.1025,0.1026,0.0999,0.0997,0.0995,0.0967,0,0,0.099,0.0989,0,0,0,0,0,0,0,0,0.1069,0.1065,0.104,0.104,0.104,0.1023,0.1023,0.0998,0.1023,0.1029,0.1025,0.1026,0.1006,0.1003,0.0997,0.0966,0.0965,0.099,0.0988,0.0988,0.0987,0,0,0,0,0,0,0,0.107,0.1066,0.1029,0.104,0.1039,0.1041,0.1039,0.1018,0.1013,0.1029,0.103,0.1027,0.1006,0.0999,0.0996,0.0964,0.099,0.0988,0.0987,0.0986,0.0909,0.0908,0,0,0,0,0,0,0.1072,0.1068,0.103,0.1028,0.1057,0.1039,0.1037,0.1027,0.1013,0.1012,0.1026,0.1027,0.1001,0.0998,0.0995,0.0961,0.0988,0.0986,0.0985,0.0909,0.0908,0.0907,0,0,0,0,0,0,0.1073,0.1069,0.1031,0.1048,0.1044,0.1038,0.1027,0.1027,0.102,0.1011,0.101,0.102,0.1002,0.0998,0.0974,0.096,0.0985,0.0983,0.0911,0.0909,0.0908,0.0891,0,0,0,0,0,0,0.1075,0.1069,0.1059,0.1048,0.1043,0.1011,0.1026,0.1025,0.1017,0.1018,0.1005,0.1004,0.1002,0.0977,0.0972,0.0958,0.0982,0.0912,0.091,0.0908,0.0893,0.0889,0.0886,0,0,0,0,0,0.1076,0.1054,0.1058,0.1053,0.103,0.101,0.1007,0.1006,0.1015,0.1004,0.0999,0.1004,0.0963,0.0974,0.0969,0.0954,0.0913,0.091,0.0908,0.0894,0.089,0.0886,0,0,0,0,0,0,0.1062,0.1053,0.1057,0.1031,0.1021,0.1011,0.0997,0.1002,0.0988,0.099,0.0989,0.0986,0.0961,0.0956,0.0969,0.0926,0.0939,0.0936,0.093,0.0926,0.0923,0.0924,0.098,0,0,0,0,0,0.1056,0.1042,0.1034,0.1012,0.1007,0.1003,0.0995,0.0995,0.0985,0.098,0.0973,0.0962,0.0947,0.0936,0.0922,0.0893,0.089,0.088,0.0877,0.0874,0.087,0.0854,0.0849,0.09,0.09,0.09,0,0,0.1043,0.1037,0.1027,0.1009,0.1002,0.0986,0.1,0.0982,0.097,0.0977,0.0954,0.0949,0.0937,0.091,0.0898,0.0904,0.0856,0.0871,0.0869,0.0867,0.0852,0.0847,0.0842,0.0899,0.0899,0.0899,0,0,0.1011,0.1006,0.0986,0.0979,0.0967,0.0965,0.0961,0.095,0.0947,0.0925,0.093,0.0915,0.0889,0.0879,0.0871,0.0837,0.0841,0.0832,0.0814,0.0798,0.0794,0.0791,0.0777,0.0773,0.083,0.0829,0.0829,0,0.0996,0.0973,0.0975,0.0957,0.0949,0.0956,0.0936,0.0929,0.0913,0.0906,0.0914,0.0881,0.0873,0.0844,0.0836,0.083,0.0824,0.0833,0.0795,0.0791,0.0788,0.0775,0.077,0.0828,0.0829,0.0829,0.0829,0,0.0955,0.0939,0.0924,0.091,0.09,0.0881,0.0879,0.0869,0.0871,0.0868,0.0844,0.0836,0.0819,0.0813,0.0814,0.0784,0.0788,0.0796,0.0808,0.0782,0.077,0.0765,0.0827,0.0827,0.0828,0.0828,0,0,0.0911,0.0899,0.0894,0.0887,0.0876,0.0863,0.0845,0.0829,0.082,0.081,0.0793,0.0771,0.0778,0.0769,0.0769,0.0756,0.0728,0.0765,0.0764,0.0757,0.0693,0.0686,0.068,0.0731,0.073,0.073,0.0694,0,0.0878,0.0845,0.0847,0.0817,0.0801,0.0809,0.0792,0.0783,0.078,0.0766,0.0763,0.0747,0.0758,0.0752,0.0739,0.0734,0.0715,0.0737,0.0715,0.0714,0.0716,0.0674,0.0667,0.0633,0.0689,0.0688,0.0688,0,0.0833,0.0822,0.079,0.0781,0.0775,0.076,0.0746,0.0733,0.0723,0.0722,0.0712,0.0715,0.0696,0.0711,0.0684,0.0699,0.069,0.0686,0.0685,0.0681,0.0698,0.0668,0.0622,0.0617,0.068,0.0681,0.0681,0,0.0803,0.078,0.0758,0.0752,0.0742,0.0731,0.0726,0.0717,0.0708,0.0696,0.0689,0.0675,0.0667,0.0655,0.0654,0.0666,0.0626,0.0641,0.0623,0.0623,0.0613,0.0613,0.0564,0.061,0.061,0.061,0.0611,0,0.0764,0.0743,0.0744,0.073,0.0708,0.071,0.0687,0.0683,0.0676,0.0661,0.0667,0.0652,0.0652,0.0638,0.0637,0.0614,0.061,0.0608,0.0607,0.0606,0.0606,0.0599,0.06,0.0609,0.0609,0.061,0.061,0,0.0725,0.0725,0.0701,0.0694,0.0691,0.0675,0.0668,0.0655,0.0653,0.0634,0.0629,0.0626,0.0609,0.0607,0.0587,0.0587,0.0558,0.0561,0.0562,0.0562,0.0543,0.0544,0.0485,0.0477,0.0531,0.053,0.053,0,0.0699,0.0684,0.0675,0.0666,0.0661,0.0646,0.0637,0.0639,0.0629,0.0617,0.0604,0.0588,0.0575,0.0548,0.0543,0.0528,0.0529,0.051,0.0527,0.0526,0.0527,0.0527,0.0525,0.0506,0.0505,0.0505,0.0504,0,0.0653,0.0653,0.064,0.0627,0.0616,0.0606,0.0596,0.0588,0.0589,0.0578,0.0561,0.0551,0.0531,0.0514,0.05,0.0494,0.0498,0.05,0.0494,0.0492,0.0492,0.049,0.0551,0.05,0.0501,0.0501,0.0501,0.0501,0.0618,0.0605,0.0597,0.0582,0.0575,0.0566,0.0553,0.055,0.0536,0.0521,0.0523,0.0504,0.0494,0.0475,0.0469,0.0453,0.046,0.0452,0.045,0.0448,0.0445,0.0496,0.0451,0.0451,0.0451,0.0451,0.0451,0,0.0571,0.0566,0.0553,0.0539,0.0528,0.0535,0.0525,0.0514,0.0498,0.0489,0.0476,0.0457,0.0441,0.0436,0.042,0.0409,0.0411,0.0405,0.0404,0.0403,0.0441,0.0446,0.0404,0.0404,0.0404,0.0404,0.0404,0.0404,0.0544,0.0522,0.0522,0.0496,0.0492,0.0473,0.0467,0.0458,0.0451,0.0429,0.0417,0.0414,0.0406,0.039,0.0376,0.0375,0.0368,0.0361,0.036,0.0396,0.04,0.0405,0.041,0.036,0.036,0.0323,0.0323,0.0322]},{"header":{"parameterUnit":"m.s-1","parameterCategory":1,"la1":30.2991,"la2":30.254,"lo1":-89.0895,"lo2":-89.0444,"dy":0.0017,"dx":0.0017,"nx":28,"ny":28,"refTime":"2023-07-25T03:00:00:Z","depth":0,"parameterNumber":3,"parameterNumberName":"V-component_of_WINDS"},"data":[0,0,0,0,0,0,0,0,0,0,0,0,0,0,0,0,0,0,0,0,0,0,0,0,0,0,0,0,0,0,0,0,0,0,0,0,0,0,0,0,0,0,0,0,0,0,0,0,0,0,0,0,0,0,0,0,0,0,-2.9046,-2.9047,0,-2.9151,-2.9153,-2.9154,-2.9134,-2.9132,-2.913,-2.9128,-2.9235,-2.924,-2.9244,0,0,0,0,0,0,0,0,0,0,0,0,0,-2.8825,-2.8829,-2.9046,-2.9047,-2.9048,-2.9151,-2.9153,-2.9154,-2.9134,-2.9132,-2.9129,-2.9127,-2.9234,-2.9239,-2.9245,0,0,0,0,0,0,0,0,0,0,0,0,0,-2.8925,-2.8831,-2.9045,-2.9051,-2.9052,-2.9151,-2.9153,-2.9154,-2.9135,-2.9132,-2.9129,-2.9126,-2.9232,-2.9238,-2.9245,-2.9345,0,0,-2.9266,-2.9269,0,0,0,0,0,0,0,0,-2.8919,-2.8933,-2.9049,-2.9051,-2.9052,-2.9126,-2.9114,-2.9218,-2.9135,-2.9103,-2.9128,-2.9125,-2.9201,-2.921,-2.9236,-2.935,-2.9355,-2.9267,-2.9271,-2.9274,-2.9276,0,0,0,0,0,0,0,-2.8912,-2.8928,-2.9087,-2.905,-2.9053,-2.9047,-2.9058,-2.9134,-2.9167,-2.9106,-2.9105,-2.9117,-2.9202,-2.923,-2.9239,-2.9356,-2.9267,-2.9273,-2.9277,-2.928,-2.9556,-2.9559,0,0,0,0,0,0,-2.8904,-2.8923,-2.9084,-2.9091,-2.8978,-2.9054,-2.9066,-2.9106,-2.9166,-2.9172,-2.912,-2.9116,-2.9219,-2.9231,-2.9242,-2.9363,-2.9274,-2.9281,-2.9285,-2.9553,-2.9557,-2.9561,0,0,0,0,0,0,-2.8899,-2.8919,-2.908,-2.9006,-2.9027,-2.9061,-2.9105,-2.9109,-2.9137,-2.9177,-2.9182,-2.9143,-2.9218,-2.9233,-2.932,-2.9366,-2.9284,-2.929,-2.955,-2.9554,-2.9559,-2.9605,0,0,0,0,0,0,-2.8893,-2.8917,-2.8955,-2.9007,-2.9031,-2.9156,-2.9108,-2.9113,-2.9149,-2.9146,-2.9199,-2.9206,-2.9217,-2.9309,-2.9327,-2.9374,-2.9296,-2.9545,-2.9552,-2.9557,-2.9599,-2.961,-2.962,0,0,0,0,0,-2.8885,-2.8964,-2.8958,-2.8977,-2.9079,-2.9158,-2.9172,-2.9183,-2.9153,-2.9192,-2.9217,-2.9204,-2.9359,-2.9319,-2.9338,-2.9388,-2.9543,-2.955,-2.9557,-2.9594,-2.9608,-2.962,0,0,0,0,0,0,-2.8916,-2.8971,-2.8964,-2.9062,-2.9106,-2.9155,-2.9204,-2.9197,-2.925,-2.9244,-2.9256,-2.9268,-2.9356,-2.9381,-2.9335,-2.9488,-2.9446,-2.9458,-2.9468,-2.9482,-2.9492,-2.9484,-2.9301,0,0,0,0,0,-2.8934,-2.8994,-2.9039,-2.9121,-2.9143,-2.917,-2.9205,-2.921,-2.9255,-2.9274,-2.9305,-2.9349,-2.9408,-2.9446,-2.9502,-2.9603,-2.9614,-2.9647,-2.9657,-2.9666,-2.9675,-2.973,-2.9745,-2.9584,-2.9584,-2.9584,0,0,-2.8972,-2.901,-2.9047,-2.9128,-2.9162,-2.9224,-2.9186,-2.9252,-2.9298,-2.9284,-2.9368,-2.9392,-2.9443,-2.9537,-2.958,-2.956,-2.9722,-2.9675,-2.9681,-2.9686,-2.9739,-2.9754,-2.9768,-2.9589,-2.9588,-2.9587,0,0,-2.9073,-2.9108,-2.918,-2.9215,-2.9268,-2.9285,-2.9303,-2.9353,-2.9369,-2.9454,-2.9444,-2.9499,-2.9599,-2.9635,-2.9667,-2.9782,-2.9771,-2.98,-2.9854,-2.9907,-2.992,-2.9931,-2.9972,-2.9986,-2.9809,-2.9809,-2.9809,0,-2.9114,-2.9207,-2.9218,-2.9286,-2.9321,-2.9312,-2.9385,-2.9418,-2.9487,-2.9511,-2.9488,-2.9615,-2.9648,-2.975,-2.9778,-2.9804,-2.9824,-2.9793,-2.9917,-2.9929,-2.994,-2.9978,-2.9994,-2.9812,-2.9812,-2.9812,-2.9811,0,-2.9254,-2.9318,-2.937,-2.9436,-2.9478,-2.9548,-2.957,-2.961,-2.9612,-2.9632,-2.9718,-2.9757,-2.9821,-2.9846,-2.9848,-2.9949,-2.9935,-2.9915,-2.9873,-2.9958,-2.9994,-3.0009,-2.9817,-2.9816,-2.9815,-2.9814,0,0,-2.9376,-2.9449,-2.9467,-2.9497,-2.9555,-2.9605,-2.9674,-2.9737,-2.9772,-2.9819,-2.9877,-2.9963,-2.9945,-2.9981,-2.9987,-3.0034,-3.0122,-3.0008,-3.0009,-3.0027,-3.0235,-3.0249,-3.0266,-3.0115,-3.0118,-3.012,-3.023,0,-2.9482,-2.9605,-2.9617,-2.9727,-2.9787,-2.9779,-2.9839,-2.9881,-2.9901,-2.9954,-2.9976,-3.0037,-3.0009,-3.003,-3.0076,-3.0101,-3.0163,-3.0094,-3.0169,-3.0172,-3.0156,-3.0285,-3.0301,-3.0402,-3.0245,-3.0247,-3.0249,0,-2.9622,-2.9674,-2.979,-2.9839,-2.9865,-2.9919,-2.9978,-3.0029,-3.0076,-3.0087,-3.0127,-3.0127,-3.0198,-3.0155,-3.0252,-3.0205,-3.0236,-3.0253,-3.0258,-3.0265,-3.0215,-3.0295,-3.0435,-3.045,-3.0272,-3.027,-3.0268,0,-2.97,-2.9799,-2.9881,-2.9907,-2.9966,-3.0005,-3.0031,-3.0076,-3.0113,-3.0164,-3.0188,-3.0246,-3.0278,-3.0324,-3.0339,-3.0306,-3.0436,-3.0394,-3.0447,-3.0447,-3.0475,-3.0473,-3.0621,-3.0496,-3.0496,-3.0495,-3.0495,0,-2.9816,-2.9887,-2.9916,-2.9967,-3.0046,-3.0059,-3.0137,-3.0162,-3.0202,-3.0256,-3.0253,-3.0304,-3.0322,-3.0376,-3.0389,-3.0468,-3.0482,-3.0493,-3.0496,-3.0493,-3.0492,-3.0514,-3.0507,-3.05,-3.0499,-3.0498,-3.0497,0,-2.9916,-2.9938,-3.0027,-3.0077,-3.0091,-3.0147,-3.0189,-3.0238,-3.0257,-3.0327,-3.0344,-3.0374,-3.0438,-3.0458,-3.0535,-3.0544,-3.0636,-3.0632,-3.062,-3.062,-3.0672,-3.0667,-3.084,-3.0863,-3.0723,-3.0724,-3.0725,0,-2.9989,-3.0043,-3.0099,-3.0135,-3.0164,-3.0223,-3.0261,-3.0276,-3.0315,-3.0373,-3.0415,-3.0478,-3.0529,-3.0631,-3.066,-3.0719,-3.0716,-3.0773,-3.0725,-3.0721,-3.0717,-3.0713,-3.0718,-3.0782,-3.0783,-3.0784,-3.0785,0,-3.0115,-3.0124,-3.0179,-3.0238,-3.0283,-3.033,-3.0376,-3.0406,-3.0427,-3.0472,-3.0537,-3.0577,-3.0656,-3.0719,-3.0778,-3.0805,-3.0799,-3.08,-3.0816,-3.0814,-3.0804,-3.081,-3.0644,-3.0796,-3.0795,-3.0794,-3.0794,-3.0793,-3.0204,-3.0252,-3.0298,-3.0359,-3.0395,-3.0438,-3.0486,-3.0512,-3.0567,-3.0632,-3.0638,-3.0708,-3.0754,-3.0834,-3.0864,-3.0919,-3.0902,-3.0925,-3.093,-3.0936,-3.094,-3.0796,-3.093,-3.0929,-3.0929,-3.0929,-3.0929,0,-3.033,-3.0359,-3.0416,-3.0479,-3.0528,-3.0518,-3.0568,-3.0609,-3.0671,-3.0714,-3.0765,-3.084,-3.0901,-3.0935,-3.0995,-3.1033,-3.1032,-3.1048,-3.1045,-3.1052,-3.0951,-3.0931,-3.1048,-3.1048,-3.1048,-3.1048,-3.1048,-3.1048,-3.0401,-3.0482,-3.0496,-3.0594,-3.0623,-3.0692,-3.0722,-3.0761,-3.0795,-3.0879,-3.093,-3.0952,-3.0992,-3.1055,-3.111,-3.1119,-3.1141,-3.116,-3.1166,-3.1071,-3.1059,-3.1047,-3.1029,-3.1164,-3.1165,-3.1262,-3.1263,-3.1264]}]]